E25RIV-1 Weather Reports


time (UTC)temp
C
wind
direction
speed
KPH
gust
KPH
rain 1hr
cm
rain 24hr
cm
rain mn
cm
humidity
%
barometer
mb
20260508105514 27 0 0.0 0.0 0.00 0.00 0.00 99 1003.0
20260508104450 28 0 0.0 0.0 0.00 0.00 0.00 99 1002.0
20260508103426 28 0 0.0 0.0 0.00 0.00 0.00 99 1003.0
20260508102402 28 0 0.0 0.0 0.00 0.00 0.00 99 1003.0
20260508101338 28 0 0.0 0.0 0.00 0.00 0.00 99 1003.0
20260508100314 28 0 0.0 0.0 0.00 0.00 0.00 99 1003.0
20260508095250 28 0 0.0 0.0 0.00 0.00 0.00 99 1002.0
20260508094226 28 0 0.0 0.0 0.00 0.00 0.00 99 1002.0
20260508093207 28 0 0.0 0.0 0.00 0.00 0.00 99 1002.0
20260508092138 28 0 0.0 0.0 0.00 0.00 0.00 99 1002.0
20260508091114 28 0 0.0 0.0 0.00 0.00 0.00 99 1001.0
20260508090050 28 0 0.0 0.0 0.00 0.00 0.00 99 1001.0
20260508085026 29 0 0.0 0.0 0.00 0.00 0.00 99 1001.0
20260508084002 29 0 0.0 0.0 0.00 0.00 0.00 99 1001.0
20260508082938 29 0 0.0 0.0 0.00 0.00 0.00 99 1001.0
20260508081914 29 0 0.0 0.0 0.00 0.00 0.00 99 1001.0
20260508080850 29 0 0.0 0.0 0.00 0.00 0.00 99 1001.0
20260508075826 28 0 0.0 0.0 0.00 0.00 0.00 99 1001.0
20260508074802 28 0 0.0 0.0 0.00 0.00 0.00 99 1001.0
20260508073738 28 0 0.0 0.0 0.00 0.00 0.00 88 1004.0
20260508072714 34 0 0.0 0.0 0.00 0.00 0.00 59 998.0
20260508071650 37 0 0.0 0.0 0.00 0.00 0.00 52 993.0
20260508070626 37 0 0.0 0.0 0.00 0.00 0.00 51 992.0
20260508065602 37 0 0.0 0.0 0.00 0.00 0.00 49 992.0
20260508064538 37 0 0.0 0.0 0.00 0.00 0.00 50 992.0
20260508063514 37 0 0.0 0.0 0.00 0.00 0.00 51 993.0
20260508062450 37 0 0.0 0.0 0.00 0.00 0.00 51 993.0
20260508061426 36 0 0.0 0.0 0.00 0.00 0.00 55 996.0
20260508060402 37 0 0.0 0.0 0.00 0.00 0.00 52 994.0
20260508055338 37 0 0.0 0.0 0.00 0.00 0.00 52 994.0
20260508054314 37 0 0.0 0.0 0.00 0.00 0.00 53 994.0
20260508053250 37 0 0.0 0.0 0.00 0.00 0.00 53 995.0
20260508052226 36 0 0.0 0.0 0.00 0.00 0.00 54 995.0
20260508051202 36 0 0.0 0.0 0.00 0.00 0.00 57 997.0
20260508050138 35 0 0.0 0.0 0.00 0.00 0.00 58 998.0
20260508045114 36 0 0.0 0.0 0.00 0.00 0.00 58 998.0
20260508044050 35 0 0.0 0.0 0.00 0.00 0.00 59 999.0
20260508043026 34 0 0.0 0.0 0.00 0.00 0.00 65 1002.0
20260508042002 35 0 0.0 0.0 0.00 0.00 0.00 61 999.0
20260508040938 35 0 0.0 0.0 0.00 0.00 0.00 64 1001.0
20260508035914 35 0 0.0 0.0 0.00 0.00 0.00 63 1000.0
20260508034850 34 0 0.0 0.0 0.00 0.00 0.00 65 1001.0
20260508033826 33 0 0.0 0.0 0.00 0.00 0.00 66 1001.0
20260508032801 34 0 0.0 0.0 0.00 0.00 0.00 67 1001.0
20260508031737 34 0 0.0 0.0 0.00 0.00 0.00 72 1002.0
20260508030713 33 0 0.0 0.0 0.00 0.00 0.00 74 1002.0
20260508025649 33 0 0.0 0.0 0.00 0.00 0.00 80 1004.0
20260508024626 33 0 0.0 0.0 0.00 0.00 0.00 74 1002.0
20260508023601 32 0 0.0 0.0 0.00 0.00 0.00 89 1004.0
20260508022537 32 0 0.0 0.0 0.00 0.00 0.00 93 1005.0
20260508021513 32 0 0.0 0.0 0.00 0.00 0.00 96 1005.0
20260508020450 32 0 0.0 0.0 0.00 0.00 0.00 99 1006.0
20260508015426 32 0 0.0 0.0 0.00 0.00 0.00 99 1005.0
20260508014402 31 0 0.0 0.0 0.00 0.00 0.00 99 1005.0
20260508013337 31 0 0.0 0.0 0.00 0.00 0.00 99 1005.0
20260508012313 30 0 0.0 0.0 0.00 0.00 0.00 99 1005.0
20260508011249 30 0 0.0 0.0 0.00 0.00 0.00 99 1005.0
20260508010225 30 0 0.0 0.0 0.00 0.00 0.00 99 1005.0
20260508005201 29 0 0.0 0.0 0.00 0.00 0.00 99 1005.0
20260508004137 29 0 0.0 0.0 0.00 0.00 0.00 99 1005.0
20260508003112 29 0 0.0 0.0 0.00 0.00 0.00 99 1005.0
20260508002048 29 0 0.0 0.0 0.00 0.00 0.00 99 1005.0
20260508001024 30 0 0.0 0.0 0.00 0.00 0.00 99 1004.0
20260508000000 28 0 0.0 0.0 0.00 0.00 0.00 99 1004.0
20260507234936 27 0 0.0 0.0 0.00 0.00 0.00 99 1004.0
20260507233912 27 0 0.0 0.0 0.00 0.00 0.00 99 1004.0
20260507232848 26 0 0.0 0.0 0.00 0.00 0.00 99 1004.0
20260507231825 26 0 0.0 0.0 0.00 0.00 0.00 99 1004.0
20260507230800 26 0 0.0 0.0 0.00 0.00 0.00 99 1004.0
20260507225736 26 0 0.0 0.0 0.00 0.00 0.00 99 1004.0
20260507224712 26 0 0.0 0.0 0.00 0.00 0.00 99 1004.0
20260507223648 26 0 0.0 0.0 0.00 0.00 0.00 99 1004.0
20260507222624 26 0 0.0 0.0 0.00 0.00 0.00 99 1004.0
20260507221600 26 0 0.0 0.0 0.00 0.00 0.00 99 1003.0
20260507220536 26 0 0.0 0.0 0.00 0.00 0.00 99 1003.0
20260507215512 26 0 0.0 0.0 0.00 0.00 0.00 99 1003.0
20260507214448 26 0 0.0 0.0 0.00 0.00 0.00 99 1003.0
20260507213424 26 0 0.0 0.0 0.00 0.00 0.00 99 1003.0
20260507212359 26 0 0.0 0.0 0.00 0.00 0.00 99 1003.0
20260507211336 26 0 0.0 0.0 0.00 0.00 0.00 99 1003.0
20260507210312 26 0 0.0 0.0 0.00 0.00 0.00 99 1003.0
20260507205248 26 0 0.0 0.0 0.00 0.00 0.00 99 1003.0
20260507204224 26 0 0.0 0.0 0.00 0.00 0.00 99 1003.0
20260507203200 26 0 0.0 0.0 0.00 0.00 0.00 99 1003.0
20260507202136 26 0 0.0 0.0 0.00 0.00 0.00 99 1003.0
20260507201112 26 0 0.0 0.0 0.00 0.00 0.00 99 1003.0
20260507200048 26 0 0.0 0.0 0.00 0.00 0.00 99 1003.0
20260507195024 26 0 0.0 0.0 0.00 0.00 0.00 99 1003.0
20260507193959 26 0 0.0 0.0 0.00 0.00 0.00 99 1003.0
20260507192935 26 0 0.0 0.0 0.00 0.00 0.00 99 1004.0
20260507191912 26 0 0.0 0.0 0.00 0.00 0.00 99 1004.0
20260507190847 26 0 0.0 0.0 0.00 0.00 0.00 99 1004.0
20260507185823 26 0 0.0 0.0 0.00 0.00 0.00 99 1004.0
20260507184759 26 0 0.0 0.0 0.00 0.00 0.00 99 1004.0
20260507183735 26 0 0.0 0.0 0.00 0.00 0.00 99 1004.0
20260507182712 26 0 0.0 0.0 0.00 0.00 0.00 99 1004.0
20260507181647 26 0 0.0 0.0 0.00 0.00 0.00 99 1004.0
20260507180623 26 0 0.0 0.0 0.00 0.00 0.00 99 1004.0
20260507175559 26 0 0.0 0.0 0.00 0.00 0.00 99 1004.0
20260507174536 26 0 0.0 0.0 0.00 0.00 0.00 99 1004.0
20260507173511 26 0 0.0 0.0 0.00 0.00 0.00 99 1004.0
20260507172447 26 0 0.0 0.0 0.00 0.00 0.00 99 1004.0
20260507171423 26 0 0.0 0.0 0.00 0.00 0.00 99 1004.0
20260507170400 26 0 0.0 0.0 0.00 0.00 0.00 99 1004.0
20260507165336 26 0 0.0 0.0 0.00 0.00 0.00 99 1005.0
20260507164312 26 0 0.0 0.0 0.00 0.00 0.00 99 1005.0
20260507163248 26 0 0.0 0.0 0.00 0.00 0.00 99 1005.0
20260507162224 27 0 0.0 0.0 0.00 0.00 0.00 99 1005.0
20260507161200 27 0 0.0 0.0 0.00 0.00 0.00 99 1005.0
20260507160136 26 0 0.0 0.0 0.00 0.00 0.00 99 1005.0
20260507155112 26 0 0.0 0.0 0.00 0.00 0.00 99 1005.0
20260507154048 26 0 0.0 0.0 0.00 0.00 0.00 99 1005.0
20260507153024 26 0 0.0 0.0 0.00 0.00 0.00 99 1005.0
20260507152000 26 0 0.0 0.0 0.00 0.00 0.00 99 1005.0
20260507150936 26 0 0.0 0.0 0.00 0.00 0.00 99 1005.0
20260507145912 26 0 0.0 0.0 0.00 0.00 0.00 99 1005.0
20260507144848 26 0 0.0 0.0 0.00 0.00 0.00 99 1005.0
20260507143824 26 0 0.0 0.0 0.00 0.00 0.00 99 1005.0
20260507142800 26 0 0.0 0.0 0.00 0.00 0.00 99 1005.0
20260507141736 26 0 0.0 0.0 0.00 0.00 0.00 99 1005.0
20260507140714 26 0 0.0 0.0 0.00 0.00 0.00 99 1005.0
20260507135648 26 0 0.0 0.0 0.00 0.00 0.00 99 1005.0
20260507134625 26 0 0.0 0.0 0.00 0.00 0.00 99 1004.0
20260507133600 26 0 0.0 0.0 0.00 0.00 0.00 99 1004.0
20260507132536 26 0 0.0 0.0 0.00 0.00 0.00 99 1004.0
20260507131512 26 0 0.0 0.0 0.00 0.00 0.00 99 1004.0
20260507130448 26 0 0.0 0.0 0.00 0.00 0.00 99 1004.0
20260507125424 26 0 0.0 0.0 0.00 0.00 0.00 99 1004.0
20260507124359 26 0 0.0 0.0 0.00 0.00 0.00 99 1004.0
20260507123335 26 0 0.0 0.0 0.00 0.00 0.00 99 1003.0
20260507122310 26 0 0.0 0.0 0.00 0.00 0.00 99 1003.0
20260507121246 26 0 0.0 0.0 0.00 0.00 0.00 99 1003.0
20260507120221 26 0 0.0 0.0 0.00 0.00 0.00 99 1002.0
20260507115158 26 0 0.0 0.0 0.00 0.00 0.00 99 1003.0
20260507114132 26 0 0.0 0.0 0.00 0.00 0.00 99 1002.0
20260507113108 26 0 0.0 0.0 0.00 0.00 0.00 99 1002.0
20260507112044 26 0 0.0 0.0 0.00 0.00 0.00 99 1002.0
20260507111020 26 0 0.0 0.0 0.00 0.00 0.00 99 1002.0